Starlink 33941

operational
NORAD ID: 63765 Int'l Des: 2025-089 Owner: SPXS Country: US Constellation: starlink
LEOCIRCULAR

About Starlink 33941

Description loading...

Live Position

Loading 3D Globe...

Upcoming Passes

Altitude History

Altitude vs Time

uPlot chart will show altitude changes over time

Two-Line Element Set

1 63765U 25089Q 25352.85812004 .00016699 00000-0 61461-3 0 9998
2 63765 43.0018 141.8809 0001754 269.3805 90.6845 15.27599732 36580
Epoch: Dec 18, 2025 • Age: 24 hours

Current Status

Altitude 486.9 km
Velocity 7.63 km/s
Sub-Earth Point 41.99°N, 174.17°E
Launch Date Apr 29, 2025
Age 0.6 years
Type internet

Technical Details

Classification Payload
Mass 575.00 kg
Dry Mass 530.00 kg
Total Mass 575.00 kg
Length 0.30 m
Diameter 4.10 m
Span 29.00 m
Shape Box + pan
Manufacturer SPXS
Bus Type Starlink V2MO
Phase Status In Orbit
Owner/State SPXS/US

Large Constellations

Loading constellations...